Torna al catalogo

COSMOS 2598

AttivoMilitarePO
NORAD 66648·PAYLOAD·🇷🇺 Russia

Lanciato Nov 25, 2025 da Plesetsk Cosmodrome

Loading…

Prossimi Passaggi (prossime 24 ore)

TLE

AggiornatoSource: Space-Track

Epoca: Sep 14, 2026, 13:29 UTC

1 66648U 25273B   26257.56181570  .00000026  00000-0  11859-3 0  9999
2 66648  82.5007 115.0163 0011333 355.8816   4.2169 12.42882522 36409

Traccia COSMOS 2598 in tempo reale con AllMySat

Download on the App Store